Location: ??????
(56.0120°N, 39.1740°E)
Time: 06:56:34
(UTC+00:00)

Cosmos 1908 Rocket - Pass Details

Date: 14 April 2026
Orbit: 599 x 625 km, 82.5° (Epoch: 13 May)

Event Time Altitude Azimuth Distance (km) Brightness Sun altitude
Exits shadow 18:51:56 35° 149° (SSE) 995 4.1 -17.2°
Maximum altitude 18:53:24 51° 95° (E) 767 3.7 -17.4°
Drops below altitude 10° 18:57:37 10° 20° (NNE) 1,966 6.5 -17.7°
Sets 18:59:52 0° 16° (NNE) 2,871 7.5 -17.9°
